This demonstration page uses our WeatherBlox Daily Observations layout. Learn more.

Left ArrowRight Arrow

39.95233, -75.16379

Hourly Observations for January 27, 2022

Temp ( °F °C ) Dew Point ( °F °C ) Humidity (%) Winds ( mph kmh ) Pressure ( in mb ) Visibility ( mi km ) Precip ( " mm )
12:54 am 00:54 Clear 23 -5 3 -16.1 42 42 NE 5 7 30.48 1032 10 16 0.00 0.00
1:54 am 01:54 Clear 22 -5.6 2 -16.7 42 42 NE 3 6 30.48 1032 10 16 0.00 0.00
2:54 am 02:54 Clear 21 -6.1 4 -15.6 47 47 Calm 30.48 1032 10 16 0.00 0.00
3:54 am 03:54 Clear 20 -6.7 6 -14.4 55 55 E 3 6 30.47 1032 10 16 0.00 0.00
4:54 am 04:54 Clear 20 -6.7 6 -14.4 55 55 Calm 30.47 1032 10 16 0.00 0.00
5:54 am 05:54 Clear 20 -6.7 8 -13.3 60 60 Calm 30.47 1032 10 16 0.00 0.00
6:54 am 06:54 Clear 18 -7.8 9 -12.8 68 68 ESE 3 6 30.48 1032 10 16 0.00 0.00
7:54 am 07:54 Mostly Sunny 20 -6.7 9 -12.8 62 62 ESE 3 6 30.48 1032 10 16 0.00 0.00
8:54 am 08:54 Mostly Sunny 24 -4.4 8 -13.3 50 50 E 3 6 30.48 1032 10 16 0.00 0.00
9:54 am 09:54 Mostly Sunny 26 -3.3 8 -13.3 46 46 SSW 3 6 30.47 1032 10 16 0.00 0.00
10:54 am 10:54 Sunny 29 -1.7 4 -15.6 34 34 S 3 6 30.47 1032 10 16 0.00 0.00
11:54 am 11:54 Mostly Sunny 30 -1.1 5 -15 34 34 SSE 3 6 30.44 1031 10 16 0.00 0.00
12:54 pm 12:54 Sunny 31 -0.6 6 -14.4 35 35 SSW 6 9 30.40 1029 10 16 0.00 0.00
1:54 pm 13:54 Sunny 33 0.6 6 -14.4 32 32 WSW 10 17 30.36 1028 10 16 0.00 0.00
2:54 pm 14:54 Sunny 34 1.1 8 -13.3 34 34 SW 8 13 30.32 1027 10 16 0.00 0.00
3:54 pm 15:54 Mostly Sunny 34 1.1 9 -12.8 35 35 WSW 13 20 30.32 1027 10 16 0.00 0.00
4:54 pm 16:54 Partly Cloudy 33 0.6 10 -12.2 38 38 SW 9 15 30.31 1026 10 16 0.00 0.00
5:54 pm 17:54 Partly Cloudy 32 0 10 -12.2 40 40 SSW 7 11 30.31 1026 10 16 0.00 0.00
6:54 pm 18:54 Mostly Cloudy 31 -0.6 11 -11.7 43 43 VRB 5 7 30.29 1026 10 16 0.00 0.00
7:54 pm 19:54 Mostly Cloudy 29 -1.7 12 -11.1 49 49 SSW 6 9 30.29 1026 10 16 0.00 0.00
8:54 pm 20:54 Mostly Cloudy 30 -1.1 13 -10.6 49 49 S 7 11 30.27 1025 10 16 0.00 0.00
9:54 pm 21:54 Cloudy 30 -1.1 14 -10 51 51 SSW 7 11 30.26 1025 10 16 0.00 0.00
10:54 pm 22:54 Cloudy 30 -1.1 15 -9.4 54 54 S 5 7 30.25 1025 10 16 0.00 0.00
11:06 pm 23:06 Cloudy 30 -1.1 15 -9.4 54 54 S 3 6 30.25 1025 10 16 0.00 0.00
11:54 pm 23:54 Cloudy 30 -1.1 16 -8.9 56 56 undefined N/A 30.24 1024 10 16 0.00 0.00

Powered by AerisWeather